{"data":{"norad_id":60341,"epoch":"2026-05-25T02:15:42.754176Z","epoch_age_seconds":57019,"freshness":"FRESH","line1":"1 60341U 24136N   26145.09424484  .00000183  00000+0  18324-4 0  9996","line2":"2 60341  53.1605  80.6840 0001343  81.2641 278.8511 15.30195638101369","mean_motion":15.30195638,"eccentricity":0.0001343,"inclination_deg":53.1605,"raan_deg":80.684,"arg_perigee_deg":81.2641,"mean_anomaly_deg":278.8511,"bstar":1.8324e-5,"rev_number":10136,"period_min":94.105613964637,"perigee_km":474.30768666394,"apogee_km":476.14850052808,"semimajor_km":6853.365093596,"source":"CELESTRAK","updated_at":"2026-05-25T13:38:19.235017Z"}}